STARLINK-34626, 65082

Orbit data source: Space-Track

STARLINK-34626, 65082 is a payload satellite owned by SpaceX/Seattle (US) in LEO that was launched on Mon, 04 Aug 2025 UTC via an FALCON 9 launch vehicle from the Air Force Eastern Test Range (AFETR). Payload-class satellites include a variety of spacecraft equipped with specific instruments for various scientific and technological missions. These include communications satellites like Starlink; space stations such as the ISS; scientific satellites like the Hubble; Earth observation satellites from companies like Planet Labs, Umbra, and HawkEye 360; GPS; miniature CubeSats for education and research; and military/defense satellites.

Loading next visibility...
Identifier
65082, 2025-167E
Orbit
LEO
Country
Flag of USUS
Related business
Manufacturer
SpaceX/Seattle
Mission
Operational Commercial Communications
Bus & Motor
STARLINK V2MO, Unknown motor
Mass
575 kg wet, ~530 kg dry
Launch date (UTC)
2025-08-04 (9 months ago)
Launch vehicle
FALCON 9
Launch site
Air Force Eastern Test Range (AFETR)
Object type
Payload
Rocket body
Debris
Shape & HBR
Box + 2 Pan, 17.7 m
Radar Cross Section
36.964 m², Large (>1 m²)

Expand to show TLE details & history
Last TLE update: 12 hours ago

TLE from 12 hours ago
0 STARLINK-34626
1 65082U 25167E   26127.23737517  .00025384  00000-0  59088-3 0  9990
2 65082  53.1596 113.3818 0001084  94.4931 265.6198 15.42157822 42460
Epoch: 2026-05-07T05:41Z
TLE epoch observation values (Epoch: 2026-05-07T05:41:49.214Z)
Latitude
-0.0001°
Longitude
162.84027°
Altitude
440.703 km
Speed
7.649 km/s
True Right ascension
07h 33m 31s
True Declination
0° 00' 00"
Sunlit
Object was in daylight at epoch
Visualization orbit readout
Latitude
Unknown
Longitude
Unknown
Altitude
Unknown
Speed
Unknown
Apparent Right ascension
Unknown
Apparent Declination
Unknown
Sunlit
N/A
Visualization observer readout
Local Sidereal Time
01:54:27
Azimuth
Unknown
Elevation
Unknown
Doppler factor
Unknown
Orbital elements
Apogee altitude
440.739 km
Perigee altitude
439.261 km
Semi-major axis
6,818.137 km
Eccentricity
0.00011
Inclination
53.1596°
RAAN
113.3818°
Arg. of periapsis
94.4931°
True anomaly
265.60741°
Mean anomaly
265.6198°
Eccentric anomaly
265.61361°
Mean motion
3.85518 °/min
Orbital period
93.38 mins
BSTAR
0.00059088
Loading maneuver chart data...
Computing Atmospheric mass density...
Loading historical data...
Loading historical data...
Loading historical data...
Loading historical data...
Loading historical data...
Loading historical data...
Loading historical data...

Documentation

Showing up to 5 results
|